Regional Weather Roundup
Issued by NWS Cleveland, OH

Home | Current Version | Previous Version | Text Only | Print | Product List | Glossary Off
Versions: 1 2 3 4 5 6 7 8 9 10 11 12 13 14 15 16 17 18 19 20 21 22 23 24 25 26 27 28 29 30 31 32 33 34 35 36 37 38 39 40 41 42 43 44 45 46 47 48 49 50

000
ASUS41 KCLE 050010
RWRCLE
OHIO REGIONAL WEATHER ROUNDUP
NATIONAL WEATHER SERVICE WILMINGTON, OH
800 PM EDT SAT JUL 04 2015

NOTE: "FAIR" INDICATES FEW OR NO CLOUDS BELOW 12,000 FEET WITH NO
SIGNIFICANT WEATHER AND/OR OBSTRUCTIONS TO VISIBILITY.

OHZ001>008-015>018-024>027-034-035-043-044-050100-
   NORTHWEST OHIO

CITY           SKY/WX    TMP DP  RH WIND       PRES   REMARKS
DEFIANCE       SUNNY     78  58  49 N3        29.99F
FINDLAY        SUNNY     77  58  51 N5        29.99F
TOLEDO EXPRESS SUNNY     76  54  46 N5        29.99F
TOLEDO EXEC    SUNNY     75  55  49 E6        30.00S
LIMA           SUNNY     74  59  59 N3        30.00S
$$

OHZ009>014-019>023-028>033-038-089-050100-
   NORTHEAST OHIO

CITY           SKY/WX    TMP DP  RH WIND       PRES   REMARKS
CLE-HOPKINS    CLEAR     72  49  44 N3        30.03S
CLE-LAKEFRONT  CLEAR     70  54  56 CALM      30.00S
CUY CO. ARPT   CLEAR     72  55  56 SW5       30.03R
LORAIN-ELYRIA  SUNNY     71  56  58 CALM      30.02S
ASHTABULA      CLEAR     70  54  56 CALM      30.03R
AKRON-CANTON   CLEAR     72  53  51 N8        30.01S
WOOSTER        CLEAR     71  56  58 N6        30.02S
MANSFIELD      SUNNY     73  58  59 N5        30.02S
YOUNGSTOWN     CLEAR     70  53  54 N6        30.02R
$$

OHZ042-051>053-060>062-070>072-077>081-050100-
  SOUTHWEST OHIO

CITY           SKY/WX    TMP DP  RH WIND       PRES   REMARKS
CINC-COVINGTON MOSUNNY   77  63  61 N8        30.00R
CINC-LUNKEN    MOSUNNY   78  61  55 N7        29.99R
HAMILTON       MOSUNNY   77  63  61 N3        30.00R
DAYTON         MOSUNNY   76  61  59 NE5       30.02R
WRIGHT-PAT AFB SUNNY     76  58  53 NW2       30.00S
DAYTON GENERAL SUNNY     76  59  55 N6        30.00R
WILMINGTON     SUNNY     72  59  63 NE5       30.01R
$$

OHZ036-037-039>041-045>050-054>059-063>069-073>076-082>088-050100-
  CENTRAL AND SOUTHEAST OHIO

CITY           SKY/WX    TMP DP  RH WIND       PRES   REMARKS
COLUMBUS       MOSUNNY   74  56  53 N8        30.00R
OSU AIRPORT    SUNNY     74  57  55 NE6       30.00S
BOLTON FIELD   SUNNY     74  58  59 NW5       30.01S
RICKENBACK AFB SUNNY     75  57  53 NW5       29.99R
NEWARK         CLEAR     74  59  59 CALM      30.00R
MARION         SUNNY     74  58  57 N3        30.01S
LANCASTER      CLEAR     73  60  63 N5        30.01R
ZANESVILLE     CLEAR     75  59  57 N3        30.00R
NEW PHILLY     CLEAR     74  56  53 CALM      30.01R
$$


USA.gov is the U.S. government's official web portal to all federal, state and local government web resources and services.